Regional Weather Roundup
Issued by NWS

Home | Current Version | Previous Version | Text Only | Print | Product List | Glossary On
Versions: 1 2 3 4 5 6 7 8 9 10 11 12 13 14 15 16 17 18 19 20 21 22 23 24 25 26 27 28 29 30 31 32 33 34 35 36 37 38 39 40 41 42 43 44 45 46 47 48 49 50
000
ASUS46 KSEW 301310
RWRWA

WASHINGTON REGIONAL WEATHER ROUNDUP
NATIONAL WEATHER SERVICE SEATTLE WA
600 AM PDT WED JUL 30 2014

NOTE:"FAIR" INDICATES FEW OR NO CLOUDS BELOW 12,000 FEET WITH NO
SIGNIFICANT WEATHER AND/OR OBSTRUCTIONS TO VISIBILITY.

WAZ505-507>509-301400-
SEATTLE, TACOMA, EVERETT, AND VICINITY

CITY           SKY/WX    TMP DP  RH WIND       PRES   REMARKS
EVERETT        CLEAR     60  54  80 NE5       30.14S
BOEING FIELD   CLEAR     63  55  75 CALM      30.13R
RENTON         CLEAR     59  55  87 CALM      30.13R
SEATAC AIRPORT PTCLDY    58  54  86 CALM      30.14S
JBLM-MCCHORD   CLOUDY    58  58  99 W2        30.14S
PUYALLUP       FAIR      54  54 100 CALM      30.15R
JBLM-FT LEWIS  CLOUDY    58  57  97 SW1       30.14R
TACOMA NARROWS FOG       58  56  93 CALM      30.14S VSB 1/4
$$

WAZ001-503-506-510-514-515-301400-
NORTH INTERIOR

CITY           SKY/WX    TMP DP  RH WIND       PRES   REMARKS
BELLINGHAM     CLEAR     57  53  86 S8        30.12R
FRIDAY HARBOR  CLEAR     49  48  97 CALM      30.13R
EASTSOUND      CLEAR     55  54  94 S3        30.10S
PORT ANGELES   CLEAR     54  51  90 NW8       30.14R
NAS WHIDBEY    PTCLDY    56  52  86 SW12      30.14R
BURLINGTON     PTCLDY    55  54  94 S7        30.15R
$$

WAZ020-022-039-040-504-511-512-301400-
SOUTHWEST INTERIOR

CITY           SKY/WX    TMP DP  RH WIND       PRES   REMARKS
SHELTON        FOG       57  56  96 SW7       30.12S VSB 3/4
OLYMPIA        FOG       55  55 100 CALM      30.15R VSB 1/4
CHEHALIS       CLOUDY    59  57  94 W3        30.14S
KELSO          CLOUDY    59  54  82 N6        30.17R
VANCOUVER      CLEAR     60  55  83 VRB3      30.11R
SCAPPOOSE, OR  CLEAR     59  54  83 N7        30.10S
PORTLAND, OR   PTCLDY    60  57  89 NW5       30.11S
$$

WAZ021-516-517-301400-
WASHINGTON COAST

CITY           SKY/WX    TMP DP  RH WIND       PRES   REMARKS
FORKS          CLOUDY    51  50  96 CALM      30.17S
HOQUIAM        CLEAR     55  53  93 CALM      30.15S FOG
ASTORIA, OR    CLEAR     58  54  86 NW8       30.15S
$$

WAZ019-023-024-040-518-519-301400-
CASCADE MOUNTAINS AND COLUMBIA GORGE

CITY           SKY/WX    TMP DP  RH WIND       PRES   REMARKS
STAMPEDE PASS  NOT AVBL
TROUTDALE, OR  CLEAR     59  56  89 W3        30.10R
THE DALLES, OR CLEAR     72  57  59 NW16G22   29.98R
$$

WAZ026-027-041>044-520-521-301400-
EAST SLOPES

CITY           SKY/WX    TMP DP  RH WIND       PRES   REMARKS
OMAK           CLEAR     69  43  38 N9        30.00R
WENATCHEE      CLEAR     74  52  46 W5        30.00R
ELLENSBURG     PTCLDY    70  47  43 NW13      30.03S
YAKIMA         PTCLDY    73  46  38 W8        30.00R
$$

WAZ028-034-035-301400-
COLUMBIA BASIN

CITY           SKY/WX    TMP DP  RH WIND       PRES   REMARKS
EPHRATA        CLEAR     78  41  26 NW7       29.96S
MOSES LAKE     CLEAR     63  48  58 N3        29.97R
PASCO          PTCLDY    78  59  51 SW12      29.96R
HERMISTON, OR  MOCLDY    75  54  47 N6        29.97R
$$

WAZ036>038-301400-
NORTHEAST WASHINGTON

CITY           SKY/WX    TMP DP  RH WIND       PRES   REMARKS
SPOKANE GEIGER PTCLDY    68  38  33 S6        30.04R
SPOKANE FELTS  CLEAR     65  50  58 NE5       30.04R
FAIRCHILD AFB  NOT AVBL
COEURDALENE,ID CLEAR     57  48  72 E7        30.06R
DEER PARK      PTCLDY    60  47  61 NE5       30.05R
$$

WAZ029>033-301400-
SOUTHEAST WASHINGTON

CITY           SKY/WX    TMP DP  RH WIND       PRES   REMARKS
PULLMAN        PTCLDY    58  44  60 CALM      30.09R
LEWISTON, ID   CLEAR     72  38  29 CALM      30.02R
WALLA WALLA    PTCLDY    78  47  33 S5        30.02R
PENDLETON, OR  MOCLDY    75  45  34 SE7       30.02S
$$


USA.gov is the U.S. government's official web portal to all federal, state and local government web resources and services.